Tiempo cada hora Alkuzhi

Hoy, 28 Julio, Miércoles

Tiempo Temperatura Precipitaciones Viento Presión Humedad
00:00 +21°C° 0 mm 1 mps 754 mmHg 62%
01:00 +20°C° 0 mm 1 mps 754 mmHg 66%
02:00 +20°C° 0 mm 1 mps 754 mmHg 71%
03:00 +19°C° 0 mm 1 mps 754 mmHg 75%
04:00 +19°C° 0 mm 1 mps 754 mmHg 75%
05:00 +20°C° 0 mm 1 mps 754 mmHg 75%
06:00 +20°C° 0 mm 1 mps 754 mmHg 75%
07:00 +23°C° 0 mm 1 mps 754 mmHg 66%
08:00 +25°C° 0 mm 1 mps 753 mmHg 57%
09:00 +27°C° 0 mm 1 mps 753 mmHg 48%
10:00 +29°C° 0 mm 1 mps 753 mmHg 43%
11:00 +30°C° 0 mm 1 mps 753 mmHg 38%
12:00 +31°C° 0 mm 1 mps 753 mmHg 33%
13:00 +32°C° 0 mm 1 mps 752 mmHg 32%
14:00 +32°C° 0 mm 2 mps 752 mmHg 32%
15:00 +32°C° 0 mm 2 mps 752 mmHg 31%
16:00 +30°C° 0 mm 3 mps 751 mmHg 38%
17:00 +28°C° 0 mm 4 mps 751 mmHg 45%
18:00 +27°C° 0 mm 4 mps 751 mmHg 52%
19:00 +23°C° 0.3 mm 4 mps 751 mmHg 64%
20:00 +21°C° 0.3 mm 3 mps 751 mmHg 77%
21:00 +19°C° 0.3 mm 2 mps 752 mmHg 90%
22:00 +19°C° 0 mm 2 mps 751 mmHg 90%
23:00 +19°C° 0 mm 2 mps 751 mmHg 90%

Mañana, 29 Julio, Jueves

Tiempo Temperatura Precipitaciones Viento Presión Humedad
00:00 +19°C° 0 mm 3 mps 750 mmHg 89%
01:00 +19°C° 0.2 mm 3 mps 750 mmHg 90%
02:00 +19°C° 0.2 mm 3 mps 749 mmHg 90%
03:00 +19°C° 0.2 mm 3 mps 749 mmHg 91%
04:00 +19°C° 0 mm 3 mps 748 mmHg 89%
05:00 +19°C° 0 mm 3 mps 748 mmHg 88%
06:00 +19°C° 0 mm 3 mps 748 mmHg 86%
07:00 +21°C° 0 mm 4 mps 747 mmHg 77%
08:00 +23°C° 0 mm 4 mps 747 mmHg 67%
09:00 +26°C° 0 mm 5 mps 746 mmHg 57%
10:00 +27°C° 0 mm 5 mps 746 mmHg 54%
11:00 +28°C° 0 mm 6 mps 746 mmHg 51%
12:00 +29°C° 0 mm 7 mps 746 mmHg 48%
13:00 +29°C° 0 mm 6 mps 746 mmHg 48%
14:00 +29°C° 0 mm 6 mps 746 mmHg 48%
15:00 +29°C° 0 mm 6 mps 746 mmHg 48%
16:00 +29°C° 0 mm 6 mps 746 mmHg 48%
17:00 +29°C° 0 mm 5 mps 746 mmHg 48%
18:00 +28°C° 0 mm 5 mps 746 mmHg 48%
19:00 +26°C° 0 mm 4 mps 746 mmHg 56%
20:00 +24°C° 0 mm 2 mps 746 mmHg 64%
21:00 +22°C° 0 mm 1 mps 746 mmHg 72%
22:00 +21°C° 0 mm 1 mps 746 mmHg 73%
23:00 +21°C° 0 mm 1 mps 746 mmHg 75%

Pasado mañana, 30 Julio, Viernes

Tiempo Temperatura Precipitaciones Viento Presión Humedad
00:00 +21°C° 0 mm 1 mps 746 mmHg 76%
01:00 +21°C° 0 mm 1 mps 746 mmHg 76%
02:00 +20°C° 0 mm 2 mps 746 mmHg 75%
03:00 +20°C° 0 mm 2 mps 746 mmHg 75%
04:00 +20°C° 0 mm 2 mps 746 mmHg 74%
05:00 +21°C° 0 mm 2 mps 746 mmHg 73%
06:00 +21°C° 0 mm 2 mps 746 mmHg 72%
07:00 +24°C° 0 mm 2 mps 746 mmHg 65%
08:00 +26°C° 0 mm 2 mps 746 mmHg 58%
09:00 +28°C° 0 mm 2 mps 746 mmHg 51%
10:00 +29°C° 0 mm 3 mps 746 mmHg 47%
11:00 +31°C° 0 mm 3 mps 746 mmHg 43%
12:00 +33°C° 0 mm 4 mps 746 mmHg 39%
13:00 +28°C° 2.3 mm 3 mps 746 mmHg 57%
14:00 +25°C° 2.3 mm 3 mps 746 mmHg 75%
15:00 +21°C° 2.3 mm 3 mps 746 mmHg 93%
16:00 +21°C° 0.8 mm 2 mps 746 mmHg 90%
17:00 +23°C° 0.8 mm 2 mps 746 mmHg 87%
18:00 +24°C° 0.8 mm 1 mps 745 mmHg 84%
19:00 +23°C° 0 mm 1 mps 746 mmHg 88%
20:00 +21°C° 0 mm 2 mps 746 mmHg 92%
21:00 +20°C° 0 mm 2 mps 746 mmHg 95%
22:00 +20°C° 0 mm 2 mps 746 mmHg 96%
23:00 +20°C° 0 mm 2 mps 746 mmHg 96%

31 Julio, Sábado

Tiempo Temperatura Precipitaciones Viento Presión Humedad
00:00 +19°C° 0 mm 2 mps 746 mmHg 96%
01:00 +19°C° 0 mm 2 mps 746 mmHg 96%
02:00 +19°C° 0 mm 2 mps 746 mmHg 96%
03:00 +19°C° 0 mm 2 mps 745 mmHg 96%
04:00 +19°C° 0 mm 2 mps 746 mmHg 94%
05:00 +20°C° 0 mm 2 mps 746 mmHg 93%
06:00 +20°C° 0 mm 2 mps 746 mmHg 91%
07:00 +22°C° 0 mm 3 mps 746 mmHg 79%
08:00 +25°C° 0 mm 3 mps 746 mmHg 67%
09:00 +27°C° 0 mm 4 mps 747 mmHg 55%
10:00 +28°C° 0 mm 4 mps 747 mmHg 47%
11:00 +29°C° 0 mm 5 mps 747 mmHg 40%
12:00 +30°C° 0 mm 5 mps 747 mmHg 33%
13:00 +32°C° 0 mm 5 mps 747 mmHg 32%
14:00 +32°C° 0 mm 4 mps 747 mmHg 31%
15:00 +32°C° 0 mm 4 mps 747 mmHg 30%
16:00 +32°C° 0 mm 4 mps 747 mmHg 32%
17:00 +31°C° 0 mm 3 mps 747 mmHg 35%
18:00 +31°C° 0 mm 3 mps 746 mmHg 37%
19:00 +28°C° 0 mm 3 mps 747 mmHg 41%
20:00 +26°C° 0 mm 2 mps 747 mmHg 46%
21:00 +24°C° 0 mm 2 mps 747 mmHg 50%
22:00 +24°C° 0 mm 2 mps 747 mmHg 52%
23:00 +23°C° 0 mm 2 mps 747 mmHg 54%

1 Agosto, Domingo

Tiempo Temperatura Precipitaciones Viento Presión Humedad
00:00 +23°C° 0 mm 2 mps 748 mmHg 55%
01:00 +21°C° 0 mm 2 mps 748 mmHg 59%
02:00 +20°C° 0 mm 2 mps 748 mmHg 62%
03:00 +20°C° 0 mm 2 mps 748 mmHg 65%
04:00 +20°C° 0 mm 2 mps 748 mmHg 65%
05:00 +20°C° 0 mm 2 mps 749 mmHg 66%
06:00 +21°C° 0 mm 2 mps 749 mmHg 66%
07:00 +24°C° 0 mm 2 mps 748 mmHg 58%
08:00 +27°C° 0 mm 3 mps 748 mmHg 50%
09:00 +29°C° 0 mm 3 mps 748 mmHg 42%
10:00 +30°C° 0 mm 4 mps 748 mmHg 38%
11:00 +33°C° 0 mm 4 mps 748 mmHg 34%
12:00 +34°C° 0 mm 5 mps 747 mmHg 30%
13:00 +35°C° 0 mm 5 mps 747 mmHg 29%
14:00 +36°C° 0 mm 5 mps 747 mmHg 28%
15:00 +36°C° 0 mm 6 mps 746 mmHg 27%
16:00 +35°C° 0 mm 5 mps 746 mmHg 28%
17:00 +35°C° 0 mm 5 mps 746 mmHg 30%
18:00 +34°C° 0 mm 4 mps 746 mmHg 32%
19:00 +31°C° 0 mm 3 mps 746 mmHg 38%
20:00 +29°C° 0 mm 2 mps 746 mmHg 45%
21:00 +26°C° 0 mm 1 mps 747 mmHg 51%
22:00 +25°C° 0 mm 2 mps 747 mmHg 59%
23:00 +24°C° 0 mm 2 mps 748 mmHg 66%

2 Agosto, Lunes

Tiempo Temperatura Precipitaciones Viento Presión Humedad
00:00 +23°C° 0 mm 2 mps 748 mmHg 73%
01:00 +23°C° 0 mm 2 mps 748 mmHg 76%
02:00 +21°C° 0 mm 2 mps 748 mmHg 79%
03:00 +21°C° 0 mm 2 mps 748 mmHg 82%
04:00 +22°C° 0 mm 1 mps 749 mmHg 80%
05:00 +22°C° 0 mm 1 mps 749 mmHg 79%
06:00 +23°C° 0 mm 1 mps 749 mmHg 77%
07:00 +24°C° 0 mm 1 mps 749 mmHg 70%
08:00 +26°C° 0 mm 1 mps 749 mmHg 62%
09:00 +26°C° 0 mm 0 mps 749 mmHg 54%
10:00 +29°C° 0 mm 1 mps 749 mmHg 50%
11:00 +31°C° 0 mm 1 mps 749 mmHg 46%
12:00 +32°C° 0 mm 1 mps 749 mmHg 42%
13:00 +34°C° 0 mm 2 mps 748 mmHg 40%
14:00 +35°C° 0 mm 2 mps 748 mmHg 37%
15:00 +35°C° 0 mm 3 mps 747 mmHg 35%
16:00 +35°C° 0 mm 2 mps 747 mmHg 37%
17:00 +34°C° 0 mm 2 mps 747 mmHg 39%
18:00 +33°C° 0 mm 1 mps 747 mmHg 41%
19:00 +30°C° 0.1 mm 2 mps 747 mmHg 49%
20:00 +28°C° 0.1 mm 2 mps 746 mmHg 57%
21:00 +25°C° 0.1 mm 3 mps 746 mmHg 66%
22:00 +25°C° 0 mm 3 mps 746 mmHg 67%
23:00 +24°C° 0 mm 3 mps 746 mmHg 68%
Mostrar más

Necesitamos Su Consentimiento

Meteoprog y nuestros Proveedores de Servicios pueden almacenar y acceder a sus datos personales como cookies, identificadores de dispositivo u otras tecnologías similares de su dispositivo y procesar dichos datos para personalizar contenido y anuncios, además de ofrecer funciones de redes sociales y analizar el tráfico.

  • Almacenar y/o acceder a información en su dispositivo

    Se puede almacenar o acceder a cookies, identificadores de dispositivo u otra información de su dispositivo para los fines anteriormente indicados.

  • Anuncios y contenido personalizados, medición de anuncios y contenido, percepciones del público, y desarrollo de productos

    Los anuncios y el contenido pueden personalizarse en base a su perfil. Se pueden añadir más datos para personalizar mejor los anuncios y contenidos. Se puede medir el rendimiento de los anuncios y contenidos. Se puede obtener la percepción sobre el público que ha visto los anuncios y contenidos. Dichos datos pueden usarse para desarrollar o mejorar la experiencia del usuario, sistemas y software.

Al hacer clic en ‘Estoy De Acuerdo’ usted permitirá el uso de las cookies, identificadores de dispositivo, balizas web u otras tecnologías similares indicadas. Su configuración puede cambiarse desde el navegador de su dispositivo.

Para ciertos fines, los intereses legítimos pueden ser considerados por encima del consentimiento. Puede leer más sobre ello en nuestra Política de Privacidad y Cookies.